Overview Statistics Trail Chart Weather Telemetry Raw packets
 

This is the latest recevied weather packets stored in our database for station/object N4UUJ-1. If no packets are shown the sender has not sent any weather packets the latest 10 day(s).

<< 3 4 5 6 7 8 9 >>
Time Temp. Humidity Pressure Rain* Wind** Luminosity Snow
1788400466 23.33° C 75% 1021.6 hPa 0 mm - - -
1788398665 23.89° C 75% 1021.4 hPa 0 mm - - -
1788396864 24.44° C 75% 1021.3 hPa 0 mm - - -
1788395063 25.56° C 75% 1021.2 hPa 0 mm - - -
1788393262 28.89° C 75% 1021.1 hPa 0 mm - - -
1788391461 28.89° C 75% 1021.1 hPa 0 mm - - -
1788389660 29.44° C 75% 1021.1 hPa 0 mm - - -
1788387859 30.56° C 75% 1021.2 hPa 0 mm - - -
1788386058 31.67° C 75% 1021.4 hPa 0 mm - - -
1788384257 31.67° C 75% 1021.4 hPa 0 mm - - -
1788382456 29.44° C 75% 1021.5 hPa 0 mm - - -
1788380655 32.78° C 75% 1021.7 hPa 0 mm - - -
1788378854 34.44° C 75% 1022 hPa 0 mm - - -
1788377053 33.89° C 75% 1022.3 hPa 0 mm - - -
1788375252 30.56° C 75% 1022.7 hPa 0 mm - - -
1788373451 32.78° C 75% 1022.8 hPa 0 mm - - -
1788371650 32.22° C 75% 1023 hPa 0 mm - - -
1788369849 31.67° C 75% 1023.5 hPa 0 mm - - -
1788368048 31.11° C 75% 1023.8 hPa 0 mm - - -
1788366247 31.67° C 75% 1024.1 hPa 0 mm - - -
1788364446 30.56° C 75% 1024.3 hPa 0 mm - - -
1788362645 31.11° C 75% 1024.4 hPa 0 mm - - -
1788360844 30° C 75% 1024.3 hPa 0 mm - - -
1788359043 28.89° C 75% 1024.2 hPa 0 mm - - -
1788357242 27.78° C 75% 1024 hPa 0 mm - - -

* Rain latest hour (hover to see other rain measurements)
** Current wind speed in m/s (hover to see current wind gust speed)